DW2738 Weather Reports


time (UTC)temp
C
wind
direction
speed
KPH
gust
KPH
rain 1hr
cm
rain 24hr
cm
rain mn
cm
humidity
%
barometer
mb
20260505023033 14 144 0.0 3.2 0.00 0.00 0.00 78 1011.4
20260505022530 14 203 3.2 4.8 0.00 0.00 0.00 77 1011.5
20260505022028 14 180 0.0 3.2 0.00 0.00 0.00 76 1011.4
20260505021524 15 128 3.2 3.2 0.00 0.00 0.00 76 1011.4
20260505021021 15 203 1.6 3.2 0.00 0.00 0.00 76 1011.7
20260505020520 15 120 0.0 4.8 0.00 0.00 0.00 76 1011.4
20260505015116 14 240 0.0 3.2 0.00 0.00 0.00 75 1011.3
20260505014613 14 240 0.0 3.2 0.00 0.00 0.00 75 1011.3
20260505014110 14 240 0.0 3.2 0.00 0.00 0.00 75 1011.3
20260505013607 14 198 1.6 3.2 0.00 0.00 0.00 76 1011.5
20260505013104 14 203 0.0 3.2 0.00 0.00 0.00 75 1011.4
20260505012602 14 195 0.0 3.2 0.00 0.00 0.00 75 1011.3
20260505012059 14 215 0.0 1.6 0.00 0.00 0.00 75 1011.3
20260505011554 15 251 0.0 1.6 0.00 0.00 0.00 74 1011.2
20260505011052 15 188 0.0 3.2 0.00 0.00 0.00 72 1011.2
20260505010547 15 194 0.0 3.2 0.00 0.00 0.00 71 1011.0
20260505010044 15 195 0.0 3.2 0.00 0.00 0.00 71 1010.9
20260505005540 15 186 0.0 3.2 0.00 0.00 0.00 70 1010.9
20260505005038 16 216 0.0 6.4 0.00 0.00 0.00 70 1011.0
20260505004535 16 180 0.0 4.8 0.00 0.00 0.00 69 1011.0
20260505004032 16 185 3.2 4.8 0.00 0.00 0.00 69 1011.0
20260505003529 16 241 4.8 6.4 0.00 0.00 0.00 71 1011.1
20260505003026 16 243 0.0 3.2 0.00 0.00 0.00 71 1011.1
20260505002521 16 172 0.0 3.2 0.00 0.00 0.00 71 1010.8
20260505002020 16 166 1.6 3.2 0.00 0.00 0.00 70 1010.9
20260505001517 16 188 0.0 3.2 0.00 0.00 0.00 71 1010.7
20260505001014 16 166 1.6 3.2 0.00 0.00 0.00 70 1010.8
20260505000512 16 180 0.0 3.2 0.00 0.00 0.00 70 1010.6
20260505000009 16 180 0.0 3.2 0.00 0.00 0.00 69 1010.7
20260504235505 16 220 0.0 6.4 0.00 0.00 0.00 69 1010.8
20260504235001 17 123 3.2 4.8 0.00 0.00 0.00 68 1010.8
20260504234453 17 195 0.0 6.4 0.00 0.00 0.00 66 1010.4
20260504233950 17 195 0.0 6.4 0.00 0.00 0.00 66 1010.4
20260504233445 17 195 0.0 6.4 0.00 0.00 0.00 66 1010.4
20260504232943 17 120 3.2 3.2 0.00 0.00 0.00 67 1010.4
20260504232440 18 155 4.8 6.4 0.00 0.00 0.00 65 1010.5
20260504231937 18 186 1.6 6.4 0.00 0.00 0.00 62 1010.5
20260504231433 18 194 1.6 12.9 0.00 0.00 0.00 61 1010.4
20260504230929 18 159 3.2 11.3 0.00 0.00 0.00 60 1010.3
20260504230426 18 157 3.2 4.8 0.00 0.00 0.00 58 1010.3
20260504225926 19 215 4.8 4.8 0.00 0.00 0.00 58 1010.4
20260504225422 19 173 8.0 8.0 0.00 0.00 0.00 57 1010.4
20260504224919 19 145 1.6 3.2 0.00 0.00 0.00 57 1010.5
20260504224416 19 159 4.8 6.4 0.00 0.00 0.00 56 1010.1
20260504223913 20 180 1.6 4.8 0.00 0.00 0.00 56 1010.3
20260504223408 20 186 8.0 11.3 0.00 0.00 0.00 54 1010.2
20260504222904 20 180 0.0 6.4 0.00 0.00 0.00 53 1010.4
20260504222402 20 142 8.0 8.0 0.00 0.00 0.00 51 1010.3
20260504221900 20 217 4.8 9.7 0.00 0.00 0.00 49 1010.3
20260504221356 20 143 4.8 8.0 0.00 0.00 0.00 50 1010.4
20260504220854 20 180 0.0 6.4 0.00 0.00 0.00 51 1010.2
20260504220350 20 180 0.0 8.0 0.00 0.00 0.00 50 1010.3
20260504215847 20 143 4.8 9.7 0.00 0.00 0.00 49 1010.2
20260504215344 20 203 3.2 4.8 0.00 0.00 0.00 49 1010.3
20260504214840 20 213 3.2 8.0 0.00 0.00 0.00 49 1010.2
20260504214337 20 228 6.4 6.4 0.00 0.00 0.00 48 1010.2
20260504213834 20 208 4.8 9.7 0.00 0.00 0.00 48 1010.1
20260504213329 20 239 11.3 16.1 0.00 0.00 0.00 47 1010.2
20260504212827 20 218 8.0 14.5 0.00 0.00 0.00 47 1010.2
20260504212323 21 151 4.8 9.7 0.00 0.00 0.00 47 1010.2
20260504211821 21 192 3.2 17.7 0.00 0.00 0.00 48 1010.2
20260504211317 21 172 3.2 9.7 0.00 0.00 0.00 48 1010.3
20260504210814 21 180 0.0 17.7 0.00 0.00 0.00 47 1010.2
20260504210311 22 175 8.0 14.5 0.00 0.00 0.00 44 1010.2
20260504205809 22 186 9.7 9.7 0.00 0.00 0.00 34 1010.1
20260504205306 22 250 4.8 8.0 0.00 0.00 0.00 43 1010.1
20260504204804 22 229 6.4 6.4 0.00 0.00 0.00 44 1010.2
20260504204302 22 254 3.2 11.3 0.00 0.00 0.00 33 1010.3
20260504203801 22 237 4.8 16.1 0.00 0.00 0.00 34 1010.1
20260504203258 23 185 4.8 11.3 0.00 0.00 0.00 33 1010.3
20260504202752 23 270 4.8 11.3 0.00 0.00 0.00 32 1010.2
20260504202250 23 270 4.8 11.3 0.00 0.00 0.00 32 1010.2
20260504201747 23 232 8.0 14.5 0.00 0.00 0.00 33 1010.2
20260504201244 23 110 8.0 11.3 0.00 0.00 0.00 34 1010.1
20260504200742 23 218 8.0 11.3 0.00 0.00 0.00 33 1010.3
20260504200237 23 190 8.0 11.3 0.00 0.00 0.00 34 1010.4
20260504195734 23 148 4.8 9.7 0.00 0.00 0.00 37 1010.5
20260504195230 23 256 8.0 11.3 0.00 0.00 0.00 34 1010.6
20260504194728 22 157 4.8 11.3 0.00 0.00 0.00 33 1010.6
20260504194223 24 251 12.9 12.9 0.00 0.00 0.00 33 1010.5
20260504193720 23 264 8.0 9.7 0.00 0.00 0.00 35 1010.4
20260504193218 24 250 4.8 8.0 0.00 0.00 0.00 34 1010.4
20260504192716 23 222 4.8 8.0 0.00 0.00 0.00 35 1010.9
20260504192214 23 263 0.0 8.0 0.00 0.00 0.00 35 1010.9
20260504191712 23 249 6.4 11.3 0.00 0.00 0.00 34 1010.9
20260504191209 23 243 3.2 6.4 0.00 0.00 0.00 34 1010.6
20260504190704 23 188 8.0 14.5 0.00 0.00 0.00 35 1010.8
20260504190200 23 173 1.6 8.0 0.00 0.00 0.00 34 1011.0
20260504185657 23 190 4.8 12.9 0.00 0.00 0.00 36 1011.3
20260504185153 23 99 0.0 8.0 0.00 0.00 0.00 35 1010.9
20260504184650 23 248 4.8 9.7 0.00 0.00 0.00 35 1011.3
20260504184144 23 266 8.0 9.7 0.00 0.00 0.00 33 1011.2
20260504182521 23 277 4.8 9.7 0.00 0.00 0.00 34 1011.6
20260504182018 23 277 4.8 9.7 0.00 0.00 0.00 34 1011.6
20260504181515 23 239 3.2 8.0 0.00 0.00 0.00 36 1011.6
20260504180351 23 231 4.8 11.3 0.00 0.00 0.00 32 1011.8
20260504175849 23 231 4.8 11.3 0.00 0.00 0.00 32 1011.8
20260504175345 23 293 3.2 9.7 0.00 0.00 0.00 33 1012.0
20260504174844 23 323 3.2 6.4 0.00 0.00 0.00 34 1012.0
20260504174341 23 252 6.4 11.3 0.00 0.00 0.00 33 1012.0
20260504173838 22 281 4.8 9.7 0.00 0.00 0.00 35 1011.8
20260504173334 22 243 8.0 11.3 0.00 0.00 0.00 35 1012.2
20260504172831 23 309 4.8 11.3 0.00 0.00 0.00 36 1012.3
20260504172328 22 324 3.2 12.9 0.00 0.00 0.00 35 1012.2
20260504171824 22 248 4.8 12.9 0.00 0.00 0.00 34 1012.4
20260504171321 22 213 6.4 11.3 0.00 0.00 0.00 36 1012.4
20260504170818 22 262 8.0 11.3 0.00 0.00 0.00 37 1012.4
20260504170315 22 236 6.4 12.9 0.00 0.00 0.00 36 1012.5
20260504160233 21 255 3.2 6.4 0.00 0.00 0.00 39 1013.2
20260504150659 20 258 6.4 12.9 0.00 0.00 0.00 48 1013.7
20260504150155 20 216 3.2 6.4 0.00 0.00 0.00 49 1013.8
20260504141124 18 247 11.3 20.9 0.00 0.00 0.00 52 1014.0
20260504140621 18 244 4.8 11.3 0.00 0.00 0.00 52 1014.1
20260504140117 18 257 3.2 16.1 0.00 0.00 0.00 53 1014.3
20260504130545 17 173 8.0 9.7 0.00 0.00 0.00 56 1014.7
20260504110432 6 98 0.0 1.6 0.00 0.00 0.00 94 1015.7
20260504100349 3 203 0.0 1.6 0.00 0.00 0.00 96 1015.7
20260504081742 4 195 0.0 0.0 0.00 0.00 0.00 92 1015.6
20260504081239 3 195 0.0 0.0 0.00 0.00 0.00 91 1015.5
20260504080736 3 195 0.0 0.0 0.00 0.00 0.00 91 1015.4
20260504080232 3 195 0.0 0.0 0.00 0.00 0.00 90 1015.2
20260504070159 4 246 0.0 0.0 0.00 0.00 0.00 89 1015.1
20260504060120 5 186 0.0 3.2 0.00 0.00 0.00 85 1014.6
20260504050548 4 255 0.0 0.0 0.00 0.00 0.00 81 1014.8
20260504045542 4 255 0.0 1.6 0.00 0.00 0.00 81 1014.8
20260504045037 4 240 0.0 1.6 0.00 0.00 0.00 81 1014.6
20260504044535 4 191 1.6 3.2 0.00 0.00 0.00 81 1014.4
20260504044032 4 286 0.0 0.0 0.00 0.00 0.00 80 1014.5
20260504043529 4 195 0.0 0.0 0.00 0.00 0.00 79 1014.5
20260504043026 4 200 0.0 1.6 0.00 0.00 0.00 80 1014.7
20260504042523 4 345 0.0 1.6 0.00 0.00 0.00 81 1014.7
20260504042020 4 14 0.0 0.0 0.00 0.00 0.00 79 1014.7
20260504041516 4 209 1.6 1.6 0.00 0.00 0.00 79 1014.5
20260504041012 4 180 0.0 3.2 0.00 0.00 0.00 79 1014.5
20260504040510 4 270 0.0 0.0 0.00 0.00 0.00 79 1014.7
20260504040006 4 325 0.0 1.6 0.00 0.00 0.00 78 1014.5
20260504035503 4 246 1.6 3.2 0.00 0.00 0.00 79 1014.6
20260504034959 4 254 0.0 1.6 0.00 0.00 0.00 80 1014.7
20260504034457 4 180 0.0 0.0 0.00 0.00 0.00 79 1014.3
20260504033954 4 180 0.0 1.6 0.00 0.00 0.00 77 1014.5
20260504033452 4 212 0.0 1.6 0.00 0.00 0.00 77 1014.1
20260504032949 4 246 0.0 1.6 0.00 0.00 0.00 77 1014.3
20260504032446 5 270 0.0 1.6 0.00 0.00 0.00 78 1014.3
20260504031942 5 254 0.0 1.6 0.00 0.00 0.00 78 1014.3
20260504031439 5 270 0.0 0.0 0.00 0.00 0.00 77 1014.2
20260504030936 5 246 0.0 1.6 0.00 0.00 0.00 77 1014.3
20260504030433 5 270 0.0 0.0 0.00 0.00 0.00 75 1014.2
20260504025929 5 270 0.0 1.6 0.00 0.00 0.00 75 1014.4
20260504025426 5 180 0.0 1.6 0.00 0.00 0.00 74 1014.2
20260504024923 5 203 0.0 1.6 0.00 0.00 0.00 73 1014.3
20260504024420 5 203 0.0 1.6 0.00 0.00 0.00 75 1014.4
20260504023917 5 270 0.0 0.0 0.00 0.00 0.00 75 1014.3
20260504023413 5 270 0.0 0.0 0.00 0.00 0.00 72 1014.2